{"data":{"norad_id":61748,"intl_designator":"2024-199P","name":"SITRO-AIS 44","alt_names":[],"object_type":"PAYLOAD","status":"ACTIVE","operator":null,"country":"CIS","launch_date":"2024-11-04","launch_site_code":"VOSTO","launch_vehicle":null,"mission":null,"orbit_class":"UNKNOWN","rcs_meters":null,"size_class":null,"mass_kg":null,"dimensions":null,"purposes":[],"wikipedia_slug":null,"has_3d_model":false,"image_url":null,"decayed_at":null,"tle_current":{"epoch":"2026-05-25T02:43:52.923072Z","epoch_age_seconds":75684,"freshness":"FRESH","line1":"1 61748U 24199P   26145.11380698  .00067826  00000+0  70108-3 0  9992","line2":"2 61748  97.2927  23.4081 0004469  29.1486 331.0022 15.64531209134178","mean_motion":15.64531209,"eccentricity":0.0004469,"inclination_deg":97.2927,"raan_deg":23.4081,"arg_perigee_deg":29.1486,"mean_anomaly_deg":331.0022,"bstar":0.00070108,"rev_number":13417,"period_min":92.040349960191,"perigee_km":371.5695396453,"apogee_km":377.60512465338,"semimajor_km":6752.7243321493,"source":"CELESTRAK","updated_at":"2026-05-25T13:38:02.533433Z"}}}